Location: Vlissingen
(51.4500°N, 3.5830°E)
Time: 11:53:03
(UTC+01:00)

N. Korean satellite - Pass Details

Date: 05 December 2021
Orbit: 447 x 490 km, 97.3° (Epoch: 27 January)

Event Time Altitude Azimuth Distance (km) Brightness Sun altitude
Rises 06:54:44 0° 4° (N) 2,474 10.0 -14.6°
Reaches altitude 10° 06:56:56 10° 354° (N) 1,592 8.9 -14.2°
Maximum altitude 06:59:55 29° 292° (WNW) 857 7.2 -13.8°
Drops below altitude 10° 07:02:52 10° 231° (SW) 1,575 8.8 -13.4°
Sets 07:05:03 0° 220° (SW) 2,442 9.9 -13.1°
